timestamp,surface_pressure_avg,surface_temp_avg,battery_voltage,lat,long
2020-01-04 00:09:01+00:00,252.8548,2.2,12.73,47.84626,-54.09684
2020-01-04 00:19:01+00:00,255.5998,2.2,12.73,47.84626,-54.09684
2020-01-04 00:29:01+00:00,250.9247,2.2,12.73,47.84626,-54.09684
2020-01-04 00:39:01+00:00,252.308,2.2,12.73,47.84626,-54.09684
2020-01-04 00:49:01+00:00,256.3031,2.2,12.73,47.84626,-54.09684
2020-01-04 00:59:01+00:00,258.6131,2.2,12.73,47.84626,-54.09684
2020-01-04 01:09:01+00:00,254.9547,2.2,12.73,47.84626,-54.09684
2020-01-04 01:19:01+00:00,256.3148,2.2,12.65,47.84626,-54.09684
2020-01-04 01:29:01+00:00,259.9264,2.2,12.65,47.84626,-54.09684
2020-01-04 01:39:01+00:00,259.2998,2.2,12.65,47.84626,-54.09684
2020-01-04 01:49:01+00:00,253.8831,2.2,12.65,47.84626,-54.09684
2020-01-04 01:59:01+00:00,254.6481,2.2,12.65,47.84626,-54.09684
2020-01-04 02:09:01+00:00,257.6264,2.2,12.65,47.84626,-54.09684
2020-01-04 02:19:01+00:00,257.5681,2.2,12.65,47.84626,-54.09684
2020-01-04 02:29:01+00:00,259.8231,2.19,12.65,47.84626,-54.09684
2020-01-04 02:39:01+00:00,268.5414,2.19,12.65,47.84626,-54.09684
2020-01-04 02:49:01+00:00,274.6247,2.18,12.65,47.84626,-54.09684
2020-01-04 02:59:01+00:00,274.9763,2.17,12.65,47.84626,-54.09684
2020-01-04 03:09:01+00:00,280.5381,2.15,12.65,47.84626,-54.09684
2020-01-04 03:19:01+00:00,287.4897,2.15,12.65,47.84626,-54.09684
2020-01-04 03:29:01+00:00,293.2031,2.15,12.65,47.84626,-54.09684
2020-01-04 03:39:01+00:00,295.5414,2.13,12.65,47.84626,-54.09684
2020-01-04 03:49:01+00:00,303.408,2.12,12.65,47.84626,-54.09684
2020-01-04 03:59:01+00:00,310.0763,2.11,12.65,47.84626,-54.09684
2020-01-04 04:09:01+00:00,310.5964,2.12,12.65,47.84626,-54.09684
2020-01-04 04:19:01+00:00,311.5563,2.14,12.65,47.84626,-54.09684
2020-01-04 04:29:01+00:00,321.303,2.16,12.65,47.84626,-54.09684
2020-01-04 04:39:01+00:00,329.6547,2.13,12.65,47.84626,-54.09684
2020-01-04 04:49:01+00:00,324.4246,2.1,12.65,47.84626,-54.09684
2020-01-04 04:59:01+00:00,323.4896,2.12,12.65,47.84626,-54.09684
2020-01-04 05:09:01+00:00,334.0696,2.13,12.65,47.84626,-54.09684
2020-01-04 05:19:01+00:00,334.0363,2.1,12.57,47.84626,-54.09684
2020-01-04 05:29:01+00:00,328.5314,2.1,12.57,47.84626,-54.09684
2020-01-04 05:39:01+00:00,331.5613,2.13,12.57,47.84626,-54.09684
2020-01-04 05:49:01+00:00,339.9446,2.13,12.57,47.84626,-54.09684
2020-01-04 05:59:01+00:00,334.478,2.1,12.57,47.84626,-54.09684
2020-01-04 06:09:01+00:00,329.358,2.1,12.57,47.84626,-54.09684
2020-01-04 06:19:01+00:00,336.293,2.11,12.57,47.84626,-54.09684
2020-01-04 06:29:01+00:00,342.8079,2.1,12.57,47.84626,-54.09684
2020-01-04 06:39:01+00:00,336.788,2.1,12.57,47.84626,-54.09684
2020-01-04 06:49:01+00:00,334.908,2.1,12.57,47.84626,-54.09684
2020-01-04 06:59:01+00:00,339.5814,2.1,12.57,47.84626,-54.09684
2020-01-04 07:09:01+00:00,337.298,2.07,12.57,47.84626,-54.09684
2020-01-04 07:19:01+00:00,326.9063,1.6,12.57,47.84626,-54.09684
2020-01-04 07:29:01+00:00,324.6246,1.58,12.57,47.84626,-54.09684
2020-01-04 07:39:01+00:00,322.7764,1.92,12.57,47.84626,-54.09684
2020-01-04 07:49:01+00:00,316.5696,1.79,12.57,47.84626,-54.09684
2020-01-04 07:59:01+00:00,312.473,1.43,12.57,47.84626,-54.09684
2020-01-04 08:09:01+00:00,309.078,1.3,12.57,47.84626,-54.09684
2020-01-04 08:19:01+00:00,307.038,1.2,12.57,47.84626,-54.09684
2020-01-04 08:29:01+00:00,301.4331,1.34,12.57,47.84626,-54.09684
2020-01-04 08:39:01+00:00,295.0363,1.75,12.57,47.84626,-54.09684
2020-01-04 08:49:01+00:00,291.3748,1.9,12.57,47.84626,-54.09684
2020-01-04 08:59:01+00:00,291.0947,1.9,12.57,47.84626,-54.09684
2020-01-04 09:09:01+00:00,291.2313,1.9,12.57,47.84626,-54.09684
2020-01-04 09:19:01+00:00,288.4697,1.76,12.57,47.84626,-54.09684
2020-01-04 09:29:01+00:00,281.3331,1.7,12.57,47.84626,-54.09684
2020-01-04 09:39:01+00:00,273.1697,1.69,12.57,47.84626,-54.09684
2020-01-04 09:49:01+00:00,267.8197,1.69,12.57,47.84626,-54.09684
2020-01-04 09:59:01+00:00,265.3597,1.7,12.57,47.84626,-54.09684
2020-01-04 10:09:01+00:00,263.3014,1.69,12.57,47.84626,-54.09684
2020-01-04 10:19:01+00:00,262.813,1.7,12.57,47.84626,-54.09684
2020-01-04 10:29:01+00:00,261.1265,1.7,12.57,47.84626,-54.09684
2020-01-04 10:39:01+00:00,259.1381,1.7,12.57,47.84626,-54.09684
2020-01-04 10:49:01+00:00,256.1297,1.7,12.57,47.84626,-54.09684
2020-01-04 10:59:01+00:00,254.2564,1.7,12.57,47.84626,-54.09684
2020-01-04 11:09:01+00:00,251.5247,1.7,12.57,47.84626,-54.09684
2020-01-04 11:19:01+00:00,250.0014,1.7,12.57,47.84626,-54.09684
2020-01-04 11:29:01+00:00,247.4897,1.7,12.57,47.84626,-54.09684
2020-01-04 11:39:01+00:00,247.3414,1.73,12.57,47.84626,-54.09684
2020-01-04 11:49:01+00:00,246.9114,1.79,12.57,47.84626,-54.09684
2020-01-04 11:59:01+00:00,249.2981,1.8,12.57,47.84626,-54.09684
2020-01-04 12:09:01+00:00,247.6349,1.8,12.57,47.84626,-54.09684
2020-01-04 12:19:01+00:00,246.9414,1.8,12.57,47.84626,-54.09684
2020-01-04 12:29:01+00:00,251.4114,1.81,12.57,47.84626,-54.09684
2020-01-04 12:39:01+00:00,258.1647,1.85,12.57,47.84626,-54.09684
2020-01-04 12:49:01+00:00,257.4482,1.89,12.57,47.84626,-54.09684
2020-01-04 12:59:01+00:00,253.7264,1.9,12.57,47.84626,-54.09684
2020-01-04 13:09:01+00:00,253.2314,1.9,12.57,47.84626,-54.09684
2020-01-04 13:19:01+00:00,252.593,1.9,12.57,47.84626,-54.09684
2020-01-04 13:29:01+00:00,249.6131,1.9,12.57,47.84626,-54.09684
2020-01-04 13:39:01+00:00,250.3997,1.9,12.57,47.84626,-54.09684
2020-01-04 13:49:01+00:00,251.9431,1.8,12.57,47.84626,-54.09684
2020-01-04 13:59:01+00:00,252.8781,1.8,12.57,47.84626,-54.09684
2020-01-04 14:09:01+00:00,252.5764,1.8,12.57,47.84626,-54.09684
2020-01-04 14:19:01+00:00,254.0731,1.8,12.57,47.84626,-54.09684
2020-01-04 14:29:01+00:00,255.6214,1.78,12.57,47.84626,-54.09684
2020-01-04 14:39:01+00:00,261.0248,1.71,12.57,47.84626,-54.09684
2020-01-04 14:49:01+00:00,265.3848,1.73,12.57,47.84626,-54.09684
2020-01-04 14:59:01+00:00,268.5664,1.78,12.57,47.84626,-54.09684
2020-01-04 15:09:01+00:00,269.9781,1.8,12.57,47.84626,-54.09684
2020-01-04 15:19:01+00:00,277.4031,1.8,12.73,47.84626,-54.09684
2020-01-04 15:29:01+00:00,279.5714,1.85,12.73,47.84626,-54.09684
2020-01-04 15:39:01+00:00,280.9714,1.8,12.73,47.84626,-54.09684
2020-01-04 15:49:01+00:00,286.5015,1.83,12.73,47.84626,-54.09684
2020-01-04 15:59:01+00:00,298.333,1.9,12.73,47.84626,-54.09684
2020-01-04 16:09:01+00:00,299.603,1.9,12.73,47.84626,-54.09684
2020-01-04 16:19:01+00:00,296.7131,1.9,12.65,47.84626,-54.09684
2020-01-04 16:29:01+00:00,307.988,1.9,12.65,47.84626,-54.09684
2020-01-04 16:39:01+00:00,316.2996,1.9,12.65,47.84626,-54.09684
2020-01-04 16:49:01+00:00,314.0913,1.9,12.65,47.84626,-54.09684
2020-01-04 16:59:01+00:00,313.603,1.9,12.65,47.84626,-54.09684
2020-01-04 17:09:01+00:00,320.203,1.9,12.65,47.84626,-54.09684
2020-01-04 17:19:01+00:00,321.313,1.9,12.65,47.84626,-54.09684
2020-01-04 17:29:01+00:00,316.0414,1.9,12.65,47.84626,-54.09684
2020-01-04 17:39:01+00:00,316.9997,1.9,12.65,47.84626,-54.09684
2020-01-04 17:49:01+00:00,321.5497,1.9,12.65,47.84626,-54.09684
2020-01-04 17:59:01+00:00,317.8931,1.9,12.65,47.84626,-54.09684
2020-01-04 18:09:01+00:00,316.9696,1.9,12.65,47.84626,-54.09684
2020-01-04 18:19:01+00:00,321.9463,1.9,12.65,47.84626,-54.09684
2020-01-04 18:29:01+00:00,324.9647,1.94,12.65,47.84626,-54.09684
2020-01-04 18:39:01+00:00,319.1613,1.9,12.65,47.84626,-54.09684
2020-01-04 18:49:01+00:00,315.0997,1.9,12.65,47.84626,-54.09684
2020-01-04 18:59:01+00:00,318.1946,1.91,12.65,47.84626,-54.09684
2020-01-04 19:09:01+00:00,317.2313,1.98,12.65,47.84626,-54.09684
2020-01-04 19:19:01+00:00,315.1363,2.0,12.65,47.84626,-54.09684
2020-01-04 19:29:01+00:00,315.3997,2.0,12.65,47.84626,-54.09684
2020-01-04 19:39:01+00:00,314.448,2.0,12.65,47.84626,-54.09684
2020-01-04 19:49:01+00:00,312.0531,2.0,12.65,47.84626,-54.09684
2020-01-04 19:59:01+00:00,307.3096,2.0,12.65,47.84626,-54.09684
2020-01-04 20:09:01+00:00,305.8763,2.0,12.65,47.84626,-54.09684
2020-01-04 20:19:01+00:00,305.6564,2.0,12.57,47.84626,-54.09684
2020-01-04 20:29:01+00:00,300.7014,2.0,12.57,47.84626,-54.09684
2020-01-04 20:39:01+00:00,295.1364,1.99,12.57,47.84626,-54.09684
2020-01-04 20:49:01+00:00,294.0997,1.99,12.57,47.84626,-54.09684
2020-01-04 20:59:01+00:00,292.9514,2.0,12.57,47.84626,-54.09684
2020-01-04 21:09:01+00:00,289.1614,2.0,12.57,47.84626,-54.09684
2020-01-04 21:19:01+00:00,287.4747,2.0,12.57,47.84626,-54.09684
2020-01-04 21:29:01+00:00,282.9614,2.0,12.57,47.84626,-54.09684
2020-01-04 21:39:01+00:00,278.1764,2.0,12.57,47.84626,-54.09684
2020-01-04 21:49:01+00:00,274.903,2.0,12.57,47.84626,-54.09684
2020-01-04 21:59:01+00:00,273.1981,2.03,12.57,47.84626,-54.09684
2020-01-04 22:09:01+00:00,266.2531,2.08,12.57,47.84626,-54.09684
2020-01-04 22:19:01+00:00,264.6414,2.09,12.57,47.84626,-54.09684
2020-01-04 22:29:01+00:00,265.5831,2.1,12.57,47.84626,-54.09684
2020-01-04 22:39:01+00:00,264.0081,2.1,12.57,47.84626,-54.09684
2020-01-04 22:49:01+00:00,255.7614,2.09,12.57,47.84626,-54.09684
2020-01-04 22:59:01+00:00,252.438,2.0,12.57,47.84626,-54.09684
2020-01-04 23:09:01+00:00,248.2714,2.04,12.57,47.84626,-54.09684
2020-01-04 23:19:01+00:00,239.9198,2.0,12.57,47.84626,-54.09684
2020-01-04 23:29:01+00:00,235.6331,2.0,12.57,47.84626,-54.09684
2020-01-04 23:39:01+00:00,237.7098,2.0,12.57,47.84626,-54.09684
2020-01-04 23:49:01+00:00,235.5498,2.0,12.57,47.84626,-54.09684
2020-01-04 23:59:01+00:00,231.9631,2.0,12.57,47.84626,-54.09684
